Flag for Trinidad and Tobago Weather past 2 weeks in Chaguanas, Trinidad and Tobago

Now
77 °F

Passing clouds.


Feels Like: 78 °F
Forecast: 78 / 90 °F
Wind: No wind

Location: Piarco International Airport - Trinidad

Current Time: Aug 27, 2014 at 8:12:26 PM

Latest Report: Aug 27, 2014 at 7:00 PM


Visibility: N/A

Pressure: 29.92 "Hg

Humidity: 89%

Dew point: 73 °F

Location of ChaguanasLocation

Historic Weather in Chaguanas — Graph

°F

Chaguanas temperature yesterday

Maximum temperature yesterday: 88 °F (at 1:00 PM)
Minimum temperature yesterday: 77 °F (at 5:00 AM)
Average temperature yesterday: 80 °F

Past Weeks' High & Low Weather Summary

 TemperatureHumidityPressure
High95 °F (Aug 20, 1:00 PM)94% (Aug 14, 6:00 PM)30.01 "Hg (Aug 14, 6:00 PM)
Low75 °F (Aug 15, 2:00 AM)44% (Aug 20, 1:00 PM)29.80 "Hg (Aug 18, 4:00 PM)
Average82 °F79%29.90 "Hg
* Reported Aug 12 6:00 PM — Aug 27 6:00 PM, Chaguanas, Weather by CustomWeather, © 2014

Note: Actual official high and low records may vary slightly from our data, if they occured in-between our weather recording intervals... More about our weather records

Advertising

Chaguanas weather history for previous 24 hours

 ConditionsComfort  
Time TempWeatherWind HumidityBarometerVisibility
6:00 PM
Aug 27
79 °FScattered clouds.No wind84%29.89 "HgN/A
5:00 PM81 °FPartly sunny.No wind79%29.89 "HgN/A
4:00 PM79 °FPartly sunny.No wind84%29.89 "HgN/A
3:00 PM77 °FThunderstorms. Broken clouds.No wind89%29.89 "Hg3 mi
1:24 PM81 °FThunderstorms. Partly sunny.13 mph84%29.89 "Hg2 mi
1:00 PM81 °FScattered showers. Partly sunny.9 mph84%29.89 "Hg2 mi
12:00 PM86 °FPartly sunny.10 mph70%29.92 "HgN/A
11:00 AM88 °FPassing clouds.No wind66%29.95 "HgN/A
10:00 AM82 °FScattered clouds.No wind74%29.95 "HgN/A
9:00 AM79 °FPassing clouds.No wind84%29.95 "HgN/A
8:00 AM75 °FLight rain. Passing clouds.No wind94%29.92 "HgN/A
7:00 AM75 °FLight rain. Passing clouds.No wind94%29.92 "HgN/A
6:00 AM75 °FThunderstorms. Passing clouds.No wind94%29.92 "HgN/A
5:00 AM75 °FSprinkles. Passing clouds.12 mph94%29.89 "Hg4 mi
4:00 AM77 °FSprinkles. Passing clouds.No wind94%29.86 "HgN/A
3:00 AM75 °FSprinkles. Passing clouds.No wind94%29.86 "HgN/A
2:00 AM75 °FPassing clouds.No wind94%29.86 "HgN/A
1:00 AM77 °FPassing clouds.No wind89%29.89 "HgN/A
12:00 AM77 °FPassing clouds.No wind89%29.92 "HgN/A
11:00 PM
Aug 26
77 °FPassing clouds.No wind89%29.92 "HgN/A
10:00 PM77 °FPassing clouds.No wind94%29.92 "HgN/A
9:00 PM77 °FPassing clouds.No wind94%29.92 "HgN/A
8:00 PM77 °FPassing clouds.No wind94%29.89 "HgN/A
Weather by CustomWeather, © 2014

See weather overviewHow to use our weather pages